Location: Eisingen in Unterfranken
(49.7591°N, 9.8347°E)
Time: 09:13:48
(UTC+01:00)

Envisat - Pass Details

Date: 30 November 2022
Orbit: 763 x 765 km, 98.2° (Epoch: 04 February)

Event Time Altitude Azimuth Distance (km) Brightness Sun altitude
Rises 03:51:32 0° 21° (NNE) 3,246 6.6 -38.4°
Reaches altitude 10° 03:54:05 10° 32° (NNE) 2,315 5.9 -38.0°
Enters shadow 03:56:18 22° 51° (NE) 1,635 5.1 -37.6°
